Find GPS IIA-8

NORAD ID: 22275 Int'l Des: 1992-089 Owner: AFSMC Country: US Constellation: GPS operational
MEOCIRCULAR

当前视图

正在加载3D地球...

关于 GPS IIA-8

正在加载描述...

即将过境

Passes for default location (London). Set your location on the main map for personalized predictions.

高度历史

Loading altitude history...

两行轨道根数

1 22275U 92089A 26148.25118311 .00000053 00000-0 00000-0 0 9997
2 22275 55.0233 129.1078 0074180 79.3032 24.6626 1.88246715236504
Epoch: May 28, 2026 • Age: 52 hours

当前状态

高度 21250.4 km
速度 3.80 km/s
星下点 26.40°N, 117.1°W
发射日期 Dec 18, 1992
运行时间 33.4 years
类型 navigation

技术详情

分类 Payload
质量 860.00 kg
干质量 860.00 kg
总质量 1881.00 kg
长度 2.40 m
直径 1.80 m
跨度 5.30 m
形状 Box + 2 Pan
制造商 RWISB
平台类型 GPS
阶段状态 In Orbit
所有者/国家 AFSMC/US

Most Searched